Regional Weather Roundup
Issued by NWS Newport/Morehead, NC

Current Version | Previous Version | Text Only | Print | Product List | Glossary On
Versions: 1 2 3 4 5 6 7 8 9 10 11 12 13 14 15 16 17 18 19 20 21 22 23 24 25 26 27 28 29 30 31 32 33 34 35 36 37 38 39 40 41 42 43 44 45 46 47 48 49 50
000
ASUS42 KMHX 231425
RWRMHX
WEATHER ROUNDUP FOR EASTERN NORTH CAROLINA
NATIONAL WEATHER SERVICE NEWPORT/MOREHEAD CITY NC
1000 AM EDT SAT JUL 23 2016

NOTE: "FAIR" INDICATES FEW OR NO CLOUDS BELOW 12,000 FEET
WITH NO SIGNIFICANT WEATHER AND/OR OBSTRUCTIONS TO VISIBILITY

NCZ015>017-031-032-045>047-102-103-231500-
NORTH COAST

CITY           SKY/WX    TMP DP  RH WIND       PRES   REMARKS
EDENTON        SUNNY     84  73  69 SW6       30.00S
ELIZABETH CITY SUNNY     85  75  72 SW8       29.99S
KITTY HAWK     SUNNY     87  72  59 SW9       29.99S
MANTEO           N/A     85  74  70 W10       30.00S

$$

NCZ045>047-081-094-103-104-231500-
CENTRAL COAST

CITY           SKY/WX    TMP DP  RH WIND       PRES   REMARKS
FRISCO         SUNNY     85  76  74 SW6       30.02S

$$

NCZ095-097-098-100-101-231500-
SOUTHERN COAST

CITY           SKY/WX    TMP DP  RH WIND       PRES   REMARKS
BEAUFORT       PTSUNNY   85  76  74 SW9       30.02R
CEDAR ISLAND   NOT AVBL
JACKSONVILLE   CLOUDY    83  73  72 SW8       30.01S
PINEY ISLAND   SUNNY    N/A N/A N/A SW10      30.01
WILMINGTON     CLOUDY    82  74  76 SW6       30.02S


$$

NCZ011>013-027>030-043-044-078>080-089-090>093-098-231500-
COASTAL PLAIN

CITY           SKY/WX    TMP DP  RH WIND       PRES   REMARKS
AHOSKIE        SUNNY     81  74  78 CALM      29.98S
CLINTON        PTSUNNY   83  78  84 SW5       30.01S
ELIZABETHTOWN  MOSUNNY   82  74  75 SW7       30.01F
GOLDSBORO      MOSUNNY   84  80  87 S9        29.98F
GREENVILLE     SUNNY     84  77  79 SW5       30.01S
HAVELOCK       PTSUNNY   86  74  67 SW10      30.02S
KENANSVILLE    MOSUNNY   83  74  73 SW3       30.01S
KINSTON        SUNNY     84  75  74 SW8       30.01S
NEW BERN       MOSUNNY   85  73  67 SW10      30.02S
RICHLANDS      SUNNY     83  75  77 S10       30.02S
ROCKY MOUNT    SUNNY     83  75  77 VRB5      30.00R
WASHINGTON     SUNNY     83  74  75 S5        30.00S
WHITEVILLE     PTSUNNY   82  74  76 S8        30.02F

$$

AMZ130-135-150-152-154-156-158-170-250-252-270-ANZ085-086-088-633-658-670-231500-
MARINE OBSERVATIONS

STATION/POSITION TIME  TEMP    WIND        PRES    WAVE   SWELL
                       AIR SEA DIR/SP/G            HT/PER HT/PER
                 (UTC) (F)     (DEG/KT/KT) (MB)    (FT/S) (FT/S)
CHESAPEAKE LIGHT NOT AVBL
64 E VA BEACH    1350   80 79  230/ 14/ 17 1014.7    4/ 5   2/ 8
DUCK             1400   82 60  230/ 10/ 13 1014.9
2 E DUCK         1311      67                N/A     2/ 9
OREGON INLET     1400   83 82  230/ 12/ 14 1015.7
13E OREGON INLT  1400      82                N/A     2/ 8   2/ 8
HATTERAS CG      1400   84 82  220/  7/ 10 1016.1
DIAMOND BUOY     1350   84 86  230/ 10/ 10 1016.5    2/ 8   2/ 8
CAPE LOOKOUT     1400   85     210/  9/ 11 1016.3
BEAUFORT LAB     1400   85 82  240/  5/  8 1016.0
30 SE NEW RVR IN 1408   85 85  220/ 10/ 12 1016.8
30 SE NEW RVR IN 1325      84                N/A     2/ 8
27 SE WRIGHTSVLE 1408   83 84  250/ 10/ 12 1017.1
5 SE WRIGHTSVLE  1408   80 84  240/  8/ 10 1017.6
225 S CAPE HAT   1350   83 85   CALM  /  2 1017.3    2/ 8   2/ 8
41 SE CHARLESTON 1350   83 86   30/ 10/ 16 1016.7    3/ 9   2/ 9

$$



USA.gov is the U.S. government's official web portal to all federal, state and local government web resources and services.